Location: Mahannah Oil Field
(37.4664°N, 96.6003°W)
Time: 11:13:13
(UTC+00:00)

Vanguard 2 - Pass Details

Date: 31 January 2021
Orbit: 552 x 2938 km, 32.9° (Epoch: 08 March)

Event Time Altitude Azimuth Distance (km) Brightness Sun altitude
Rises 00:29:03 0° 267° (W) 2,718 12.3 -8.4°
Reaches altitude 10° 00:31:23 10° 255° (WSW) 1,825 11.2 -8.8°
Maximum altitude 00:34:50 28° 194° (SSW) 1,120 8.7 -9.5°
Drops below altitude 10° 00:38:56 10° 135° (SE) 2,183 9.6 -10.3°
Enters shadow 00:41:47 - 125° (SE) 3,292 10.4 -10.8°
